GW4332 Weather Reports


Display with metric or nautical units.
time (UTC)temp
F
wind
direction
speed
MPH
gust
MPH
rain 1hr
in
rain 24hr
in
rain mn
in
humidity
%
barometer
mb
20260504231029 51 34 8.0 13.0 0.00 0.00 0.00 86 1013.5
20260504230029 52 47 7.0 13.0 0.00 0.00 0.00 86 1013.5
20260504225029 52 34 9.0 14.0 0.00 0.00 0.00 86 1013.5
20260504224030 52 37 9.0 14.0 0.00 0.00 0.00 86 1013.5
20260504223030 52 37 9.0 14.0 0.00 0.00 0.00 86 1013.5
20260504222030 53 24 7.0 13.0 0.00 0.00 0.00 86 1013.7
20260504221030 53 15 8.0 13.0 0.00 0.00 0.00 86 1013.8
20260504220030 53 23 6.0 11.0 0.00 0.00 0.02 86 1013.8
20260504215030 53 40 7.0 11.0 0.00 0.00 0.02 86 1013.9
20260504214030 53 46 8.0 13.0 0.00 0.00 0.02 86 1013.9
20260504213030 53 42 8.0 12.0 0.00 0.00 0.02 86 1014.0
20260504212030 54 40 6.0 11.0 0.00 0.00 0.02 86 1014.0
20260504211030 54 32 9.0 15.0 0.00 0.00 0.02 86 1013.9
20260504210030 54 40 9.0 15.0 0.00 0.00 0.02 86 1014.1
20260504205030 54 47 7.0 12.0 0.00 0.00 0.02 86 1014.0
20260504204030 54 42 8.0 12.0 0.00 0.00 0.02 86 1013.9
20260504203030 55 30 7.0 13.0 0.00 0.00 0.02 86 1013.8
20260504202030 55 32 9.0 14.0 0.00 0.00 0.02 86 1013.8
20260504201030 55 39 9.0 14.0 0.00 0.00 0.02 86 1013.8
20260504200030 55 34 6.0 10.0 0.00 0.00 0.02 86 1013.7
20260504195030 55 43 9.0 15.0 0.00 0.00 0.02 86 1013.6
20260504194030 56 31 9.0 15.0 0.00 0.00 0.02 86 1013.5
20260504193030 56 14 7.0 13.0 0.00 0.00 0.02 86 1013.4
20260504192030 56 25 9.0 18.0 0.00 0.00 0.02 86 1013.4
20260504191030 56 18 9.0 18.0 0.00 0.00 0.02 85 1013.3
20260504190030 57 12 9.0 14.0 0.00 0.00 0.02 85 1013.3
20260504185029 57 12 10.0 17.0 0.00 0.00 0.02 85 1013.2
20260504184029 57 15 9.0 15.0 0.00 0.00 0.02 85 1013.4
20260504183030 58 3 11.0 17.0 0.00 0.00 0.02 85 1013.2
20260504182030 58 1 11.0 17.0 0.00 0.00 0.02 84 1013.1
20260504181030 58 7 11.0 16.0 0.00 0.00 0.02 83 1013.1
20260504180030 59 3 11.0 17.0 0.00 0.00 0.02 83 1013.1
20260504175030 59 359 10.0 17.0 0.00 0.00 0.02 83 1013.1
20260504174030 60 349 10.0 15.0 0.00 0.00 0.02 83 1013.1
20260504173030 60 5 9.0 14.0 0.00 0.00 0.02 83 1013.2
20260504172030 60 339 10.0 15.0 0.00 0.00 0.02 83 1013.0
20260504171029 60 4 9.0 16.0 0.00 0.00 0.02 83 1013.1
20260504151030 61 347 10.0 13.0 0.00 0.00 0.02 83 1013.0
20260504141030 62 355 8.0 13.0 0.00 0.00 0.02 83 1013.3
20260504081030 58 179 1.0 3.0 0.00 0.00 0.02 95 1013.0
20260504045030 55 262 0.0 1.0 0.00 0.00 0.02 94 1011.8
20260504044030 55 262 2.0 4.0 0.00 0.00 0.02 94 1011.8
20260504043029 55 275 4.0 7.0 0.00 0.00 0.02 94 1011.8
20260504042030 55 255 4.0 7.0 0.00 0.00 0.02 94 1011.8
20260504041030 55 252 5.0 7.0 0.00 0.00 0.02 94 1011.8
20260504040029 55 257 6.0 9.0 0.00 0.00 0.02 94 1011.7
20260504035029 56 250 6.0 9.0 0.00 0.00 0.02 94 1011.6
20260504034030 56 256 4.0 7.0 0.00 0.00 0.02 95 1011.7
20260504033030 56 236 3.0 7.0 0.00 0.00 0.02 94 1011.6
20260504032029 56 185 1.0 3.0 0.00 0.00 0.02 94 1011.7
20260504031030 56 162 0.0 3.0 0.00 0.00 0.02 94 1011.7
20260504030030 56 214 2.0 5.0 0.00 0.00 0.02 94 1011.6
20260504025029 56 217 4.0 8.0 0.00 0.00 0.02 94 1011.6
20260504024030 56 222 4.0 9.0 0.00 0.00 0.02 94 1011.6
20260504023030 56 242 4.0 9.0 0.00 0.00 0.02 94 1011.5
20260504022029 56 222 4.0 6.0 0.00 0.00 0.02 94 1011.5
20260504021030 56 209 3.0 5.0 0.00 0.00 0.02 94 1011.5
20260504020030 56 216 3.0 5.0 0.00 0.00 0.02 94 1011.6
20260504015029 56 235 4.0 8.0 0.00 0.00 0.02 94 1011.6
20260504014030 57 240 6.0 10.0 0.00 0.00 0.02 94 1011.6
20260504013029 57 239 6.0 9.0 0.00 0.00 0.02 94 1011.4
20260504012030 57 232 5.0 9.0 0.00 0.00 0.02 94 1011.6
20260504011029 57 222 4.0 7.0 0.00 0.00 0.02 94 1011.5
20260504010030 57 207 4.0 7.0 0.00 0.00 0.02 94 1011.5
20260504005030 57 229 5.0 8.0 0.00 0.00 0.02 94 1011.4
20260504004029 57 240 6.0 10.0 0.00 0.00 0.02 94 1011.4
20260504003029 57 237 7.0 11.0 0.00 0.00 0.02 94 1011.5
20260504002030 57 227 4.0 6.0 0.00 0.00 0.02 94 1011.5
20260504001030 57 229 4.0 8.0 0.00 0.00 0.02 94 1011.5
20260504000029 57 237 7.0 10.0 0.00 0.00 0.02 94 1011.5
20260503235030 57 238 9.0 12.0 0.00 0.00 0.02 94 1011.6
20260503234030 57 245 9.0 12.0 0.00 0.00 0.02 94 1011.4
20260503233029 58 239 6.0 10.0 0.00 0.00 0.02 93 1011.4
20260503232030 58 206 3.0 5.0 0.00 0.00 0.02 93 1011.4